User: anonymous   Login
Location: Hungerford
(51.4167°N, 1.5167°W)
Time: 17:43:10
(UTC+00:00)
Language:

Cosmos 1844 - Orbit

View from above orbital plane
View from above orbital plane
View from above satellite
View from above satellite

Ground track
Ground track

The orbit data is extracted from the following two-line orbital elements,

1 17973U 87041A   20337.71604221 -.00000326  00000-0 -14500-3 0  9991
2 17973  70.8966 128.4095 0030048  23.7463 336.5037 14.14113204731700
Epoch (UTC): 02 December 2020 17:11:06
Eccentricity: 0.0030048
inclination: 70.8966°
perigee height: 823 km
apogee height: 867 km
right ascension of ascending node: 128.4095°
argument of perigee: 23.7463°
revolutions per day: 14.14113204
mean anomaly at epoch: 336.5037°
orbit number at epoch: 73170

The dashed part of the orbit path shows where the satellite is in the earth's shadow,  

DLR